DELTA 1 DEB, 7039

Orbit data source: Space-Track

DELTA 1 DEB, 7039 is space debris in SSO originally from a launch on Tue, 06 Nov 1973 UTC launched from the Air Force Western Test Range (AFWTR). Debris objects in space refer to the collection of defunct objects orbiting the Earth. Examples of debris include non-operational satellites, rocket bodies, and fragments generated from explosions, collisions, or faulty payload assembly.

Loading next visibility...
Identifier
7039, 1973-086AF
Orbit
SSO
Last TLE update
6 hours ago
Origin
Manufacturer
Unknown
Mission
Spacecraft
Bus & Motor
Unknown
Mass
Unknown
Launch date (UTC)
1973-11-06 (52 years ago)
Launch vehicle
Unknown
Launch site
Air Force Western Test Range (AFWTR)
Object type
Payload
Rocket body
Debris
Shape & HBR
Unknown
Radar Cross Section
Medium (>0.1 m² and <1 m²)

Expand to show TLE details & history

TLE from 6 hours ago
0 DELTA 1 DEB
1  7039U 73086AF  25126.88219623  .00000056  00000-0  67709-3 0  9991
2  7039 102.5145 104.4352 0129524 326.6616  91.7212 12.49539788346619
Epoch: 2025-05-06T21:10Z
Definitive object data (Epoch: 2025-05-06T21:10:21.754Z)
Latitude
57.69081°
Longitude
-98.57261°
Altitude
1,480.264 km
Speed
7.127 km/s
True Right ascension
05h 35m 58s
True Declination
57° 32' 58"
Sunlit
Object was in daylight at TLE epoch
Visualization TLE readout
Latitude
69.88932°
Longitude
-114.97723°
Altitude
1,508.215 km
Speed
7.103 km/s
Apparent Right ascension
00h 49m 35s
Apparent Declination
29° 15' 30"
Sunlit
Object is in daylight
Visualization observer readout
Local Sidereal Time
11:01:10
Azimuth
335.526° NNW
Elevation
-16.382°
Doppler factor
1
Orbital elements
Apogee altitude
1,565.588 km
Perigee altitude
1,362.439 km
Semi-major axis
7,842.15 km
Eccentricity
0.0129524
Inclination
102.5145°
RAAN
104.4352°
Arg. of periapsis
326.6616°
True anomaly
93.20388°
Mean anomaly
91.7212°
Eccentric anomaly
92.46263°
Mean motion
3.12529 °/min
BSTAR
0.00067709
Orbital period
115.19 mins
Loading maneuver chart data...
Loading SW <> Apogee altitude chart data...
Loading historical data...
Loading historical data...
Loading historical data...
Loading historical data...
Loading historical data...
Loading historical data...
Loading historical data...

DELTA 1 DEB Visibility forecast

Observer location: undefined°, undefined°

Span
Click to sort rows by Start time (UTC) header in descending order
Start Az.
Max El. time (UTC)
Max El. Az.
Max El.
End time (UTC)
End Az.
16 mins2025-05-07 10:55:47.391Z27.343° NE2025-05-07 11:03:47.391Z103.447° ESE40.111°2025-05-07 11:11:47.391Z180.224° SSW
14 mins2025-05-07 12:49:47.391Z359.599° N2025-05-07 12:56:47.391Z296.263° NW30.649°2025-05-07 13:03:47.391Z241.482° WSW
9 mins2025-05-07 20:07:47.391Z79.921° E2025-05-07 20:11:47.391Z47.696° ENE17.502°2025-05-07 20:16:47.391Z10.077° NNE
15 mins2025-05-07 21:56:47.391Z151.591° SSE2025-05-07 22:03:47.391Z39.641° NE44.15°2025-05-07 22:11:47.391Z344.427° N
10 mins2025-05-07 23:52:47.391Z228.549° WSW2025-05-07 23:56:47.391Z262.568° W19.897°2025-05-08 00:02:47.391Z311.113° NW
|